Tracking 29089 objects as of 12-Jul-2024
HD Live streaming from Space Station
objects crossing your sky now

COSMOS 1581

Track COSMOS 1581 now!
COSMOS 1581 is classified as:


NORAD ID: 15095
Int'l Code: 1984-071A
Perigee: 2,073.7 km
Apogee: 38,452.4 km
Inclination: 66.3 °
Period: 721.0 minutes
Semi major axis: 26634 km
RCS: 9.1322 m2 (large)
Launch date: July 3, 1984
Source: Commonwealth of Independent States (former USSR) (CIS)
Launch site: PLESETSK MISSILE AND SPACE COMPLEX (PKMTR)
Your satellite tracking list
Your tracking list is empty




NASA's NSSDC Master Catalog

Two Line Element Set (TLE):
1 15095U 84071A   24194.37704418  .00000346  00000-0  00000-0 0  9997
2 15095  66.2518  80.7409 6829364  16.8719 357.7914  1.99731529266396
Source of the keplerian elements: AFSPC